STARLINK-35044

Last updated on Tue Oct 07 2025 00:02:06 GMT+0000 (Coordinated Universal Time)

1 65536U 25200S 25279.50003471 -.00180231 00000+0 -33823-2 0 9996 2 65536 97.6034 346.2159 0001382 94.9723 18.0856 15.49236793 5860

Satellite not in orbit

STARLINK-35044